Temp
17 17 17 17 17 18 18 18 19 19 19 19 19 19 19 19 19 19 19 19 19 19 18 18 19 18 18 18 18 17 18 18 17 18 18 17 17 17 18 18 18 18 17
18 18 17 17 17 17 18 18 19 19 19 19 19 19 19 19 19 19 19 19 19 18 18 18 18 18 18 17 18 18 18 18 17 17 17 17 17 17 18 17 17 17 17
18 18 18 17 18 18 18 18 19 19 19 20 19 19 19 19 19 19 19 19 18 18 18 18 18 18 18 18 18 18 18 17 17 17 17 18 18 18 17 17 17 17 17
18 18 18 18 18 18 18 18 19 19 19 19 19 19 19 19 19 19 18 19 19 18 19 18 18 18 18 17 17 17 17 18 17 18 18 18 18 18 18 17 17 17 17
18 18 18 18 18 18 18 18 19 19 19 19 19 19 19 19 19 19 19 19 19 19 18 18 18 17 17 18 18 18 18 18 18 18 18 18 18 17 17 17 17 17 17
18 18 18 18 18 18 18 18 19 19 19 19 19 19 19 20 19 19 19 19 19 19 19 19 18 18 18 18 18 18 18 18 18 18 18 18 18 17 18 17 17 17 17
18 18 18 18 18 18 18 18 19 19 19 19 19 19 20 20 19 19 17 19 19 19 19 19 18 18 18 18 18 18 18 19 18 19 19 19 18 18 18 18 17 17 17
18 18 18 18 18 18 18 19 19 19 19 19 19 20 20 19 19 19 19 19 20 20 19 19 18 18 18 19 19 19 19 20 20 20 20 20 19 19 19 19 19 19 18
18 18 18 18 18 18 19 19 19 19 19 19 20 20 19 19 19 19 19 19 19 19 19 19 19 19 19 19 19 20 20 20 20 21 21 20 20 20 20 20 19 19 19
17 17 17 17 18 18 19 19 19 20 19 20 20 20 19 19 19 19 19 20 20 20 20 20 19 19 20 20 20 20 20 21 21 21 21 21 20 20 20 20 20 20 19
16 17 17 18 18 18 18 19 19 20 20 20 20 20 20 20 20 19 19 19 19 20 20 20 20 20 20 20 20 21 21 21 21 21 21 21 21 21 21 20 20 20 20
17 17 17 18 18 19 19 20 19 20 20 20 21 20 20 20 20 19 20 19 20 20 20 20 20 20 20 21 20 21 21 21 21 21 21 22 21 21 21 21 20 20 20
18 18 18 18 18 19 19 19 20 19 19 20 21 20 20 20 20 20 20 20 20 21 21 21 20 21 21 21 21 21 21 21 21 21 22 22 22 21 21 21 21 20 20
19 18 18 18 18 19 19 19 19 19 19 20 20 21 20 20 20 20 20 20 21 21 21 21 21 21 21 21 21 22 21 22 21 21 21 22 22 21 22 22 21 21 21
19 19 19 19 19 19 19 19 19 19 19 20 21 21 20 20 20 20 21 21 21 21 21 21 22 21 21 21 22 22 22 22 22 22 22 21 22 22 22 22 22 22 21
20 20 19 20 19 20 19 19 19 20 19 20 20 20 20 20 20 20 20 21 21 21 21 21 21 22 22 22 23 23 22 22 22 22 22 22 22 22 22 22 22 22 21
21 20 21 21 20 20 20 19 19 19 20 20 20 20 20 20 20 20 20 21 21 21 21 22 22 23 22 22 22 23 23 22 22 23 23 23 22 23 23 22 22 22 22
21 21 21 21 21 20 20 20 20 20 20 20 20 20 20 20 20 20 20 21 21 21 21 22 22 23 23 22 22 22 22 22 23 23 23 23 23 23 23 22 22 22 22
21 21 21 21 21 21 20 20 20 20 20 20 20 20 20 20 20 20 21 21 21 21 21 22 22 22 22 23 23 23 23 23 23 23 23 23 23 23 23 23 22 22 22
22 21 21 21 21 21 19 19 19 20 20 20 20 20 20 20 20 20 21 21 21 21 21 21 22 22 22 22 23 23 23 23 24 23 24 23 23 23 23 23 23 23 23
22 22 21 21 21 20 19 19 19 19 20 20 20 20 20 20 20 20 20 21 21 21 21 21 22 22 22 22 23 23 24 24 24 24 24 24 24 24 23 23 23 23 23
23 22 21 21 21 20 20 20 19 19 19 20 20 20 20 20 20 20 20 20 21 21 21 21 21 21 22 22 22 22 23 24 24 24 24 24 24 24 23 23 22 23 23
23 22 22 21 21 21 21 20 20 19 19 19 20 20 20 20 20 20 20 20 20 20 21 21 21 21 21 21 21 21 22 23 23 23 23 23 23 23 22 22 22 22 22
23 23 22 21 21 21 20 20 20 20 20 20 20 20 19 20 20 20 20 20 20 20 20 21 21 21 21 21 21 21 21 21 21 22 23 23 23 22 22 22 22 22 22
23 23 23 22 22 21 21 20 20 20 20 20 20 20 20 20 20 20 20 20 20 20 20 20 21 21 20 20 21 21 21 21 21 21 21 22 22 22 22 22 22 22 22
22 22 22 22 22 21 21 21 20 20 20 20 20 20 20 20 20 20 20 20 20 20 20 20 20 20 20 20 20 20 20 20 20 20 20 21 21 22 21 21 22 22 21
Height
1540 1541 1542 1543 1544 1544 1544 1544 1545 1546 1547 1548 1548 1549 1549 1549 1550 1550 1551 1552 1552 1552 1553 1553 1554 1554 1555 1555 1556 1556 1556 1557 1557 1557 1557 1557 1556 1557 1557 1558 1559 1559 1560
1541 1542 1543 1545 1546 1547 1547 1547 1548 1549 1550 1551 1551 1552 1552 1552 1553 1553 1554 1555 1555 1555 1555 1556 1557 1558 1558 1559 1559 1559 1559 1559 1560 1560 1560 1559 1559 1559 1560 1560 1561 1561 1562
1542 1544 1546 1548 1548 1549 1550 1550 1551 1552 1553 1553 1554 1554 1555 1556 1556 1556 1557 1557 1558 1558 1558 1559 1559 1560 1561 1562 1562 1563 1562 1562 1562 1562 1562 1562 1562 1562 1562 1562 1562 1563 1564
1545 1546 1548 1550 1552 1552 1553 1554 1554 1555 1555 1556 1557 1557 1558 1559 1559 1560 1560 1560 1560 1560 1561 1562 1562 1563 1563 1564 1564 1565 1565 1565 1565 1564 1564 1564 1564 1564 1564 1564 1564 1565 1565
1547 1550 1551 1553 1554 1556 1557 1557 1557 1558 1558 1559 1560 1560 1560 1561 1562 1562 1562 1561 1561 1562 1563 1564 1566 1566 1566 1566 1567 1567 1567 1567 1566 1566 1566 1565 1565 1566 1566 1566 1566 1566 1566
1548 1551 1553 1555 1557 1559 1560 1561 1561 1561 1561 1562 1562 1563 1563 1564 1564 1565 1564 1564 1563 1563 1565 1567 1569 1569 1569 1569 1569 1569 1568 1568 1567 1567 1567 1567 1567 1567 1567 1567 1568 1568 1568
1549 1552 1555 1558 1559 1562 1563 1564 1564 1564 1564 1565 1566 1566 1567 1567 1568 1568 1568 1567 1566 1566 1567 1570 1572 1572 1572 1571 1571 1571 1569 1568 1568 1568 1568 1568 1569 1569 1568 1569 1569 1569 1569
1551 1553 1556 1559 1561 1564 1565 1567 1568 1568 1568 1569 1569 1569 1571 1571 1571 1571 1571 1571 1570 1570 1571 1573 1575 1575 1575 1574 1574 1573 1571 1571 1571 1571 1570 1571 1570 1570 1570 1570 1570 1570 1570
1552 1554 1557 1560 1563 1566 1567 1569 1570 1570 1571 1572 1572 1573 1574 1574 1575 1575 1575 1576 1576 1576 1576 1576 1577 1577 1577 1577 1576 1575 1575 1574 1573 1574 1574 1573 1573 1572 1572 1572 1572 1572 1573
1552 1555 1558 1561 1564 1567 1569 1571 1572 1573 1573 1574 1575 1577 1577 1578 1579 1579 1580 1581 1582 1582 1581 1581 1581 1581 1581 1580 1579 1578 1578 1578 1577 1577 1577 1576 1576 1575 1575 1575 1575 1575 1575
1554 1556 1558 1562 1566 1569 1570 1572 1573 1574 1575 1576 1578 1579 1580 1581 1582 1583 1584 1585 1585 1586 1586 1586 1585 1584 1583 1583 1582 1582 1581 1581 1581 1580 1580 1579 1579 1578 1578 1578 1578 1578 1577
1555 1557 1560 1564 1567 1569 1572 1574 1575 1577 1578 1578 1580 1582 1583 1584 1585 1586 1586 1586 1587 1588 1588 1589 1588 1587 1586 1586 1585 1585 1584 1584 1583 1583 1582 1582 1582 1581 1581 1581 1580 1581 1579
1558 1560 1562 1565 1568 1571 1573 1575 1577 1579 1580 1580 1582 1584 1586 1587 1588 1589 1589 1589 1589 1589 1590 1590 1590 1590 1589 1588 1587 1587 1587 1587 1586 1585 1585 1585 1584 1584 1583 1583 1582 1582 1581
1560 1563 1565 1567 1570 1573 1575 1577 1579 1581 1582 1584 1584 1586 1588 1590 1591 1592 1591 1592 1592 1592 1592 1592 1592 1592 1591 1590 1589 1589 1589 1589 1588 1587 1587 1587 1587 1586 1585 1584 1584 1583 1583
1561 1564 1567 1570 1573 1574 1577 1579 1581 1583 1585 1586 1586 1588 1589 1591 1592 1593 1593 1592 1594 1594 1594 1594 1594 1593 1592 1591 1590 1590 1590 1590 1590 1590 1589 1589 1589 1588 1587 1585 1585 1585 1584
1563 1565 1568 1572 1575 1578 1579 1581 1583 1584 1586 1587 1589 1590 1591 1592 1593 1594 1594 1594 1595 1595 1595 1595 1595 1593 1593 1591 1591 1591 1591 1591 1591 1590 1590 1589 1589 1589 1587 1587 1585 1585 1584
1563 1566 1569 1572 1576 1578 1580 1582 1584 1586 1587 1588 1590 1591 1592 1594 1594 1595 1595 1596 1596 1596 1596 1596 1595 1594 1593 1592 1592 1591 1591 1591 1590 1590 1590 1590 1589 1589 1588 1587 1586 1584 1583
1564 1566 1569 1573 1575 1578 1580 1583 1585 1586 1587 1589 1590 1591 1593 1594 1595 1595 1595 1596 1596 1596 1596 1596 1594 1593 1593 1592 1591 1591 1590 1590 1589 1588 1589 1589 1589 1588 1587 1586 1585 1584 1583
1563 1566 1568 1571 1573 1576 1579 1582 1584 1586 1587 1589 1590 1591 1592 1594 1594 1595 1595 1596 1596 1596 1596 1596 1595 1594 1593 1592 1591 1590 1590 1589 1588 1588 1587 1588 1588 1588 1587 1586 1585 1583 1582
1562 1565 1568 1570 1572 1575 1577 1580 1583 1585 1587 1589 1590 1591 1591 1593 1593 1593 1594 1595 1595 1595 1595 1595 1594 1593 1592 1591 1590 1590 1589 1587 1587 1586 1586 1586 1586 1586 1586 1585 1584 1582 1581
1560 1563 1566 1569 1572 1574 1575 1577 1580 1582 1585 1587 1588 1590 1590 1591 1590 1592 1593 1594 1595 1595 1595 1594 1594 1593 1593 1591 1590 1589 1588 1586 1586 1585 1585 1584 1584 1584 1583 1582 1581 1580 1578
1558 1562 1565 1567 1570 1572 1575 1576 1578 1580 1582 1585 1586 1587 1588 1589 1590 1590 1592 1593 1594 1594 1594 1595 1594 1594 1593 1592 1591 1589 1586 1586 1584 1583 1583 1582 1582 1582 1581 1581 1579 1578 1576
1557 1560 1563 1566 1569 1571 1573 1575 1576 1579 1579 1580 1582 1584 1586 1587 1588 1588 1590 1592 1592 1593 1593 1593 1593 1593 1592 1592 1592 1591 1588 1585 1583 1582 1582 1581 1581 1580 1580 1579 1578 1576 1573
1554 1559 1562 1564 1566 1569 1572 1573 1573 1574 1575 1577 1579 1581 1583 1584 1585 1586 1587 1589 1590 1590 1590 1591 1592 1592 1591 1590 1591 1590 1588 1587 1585 1582 1581 1580 1580 1579 1578 1577 1575 1573 1569
1555 1556 1559 1563 1564 1566 1569 1571 1572 1572 1573 1574 1577 1577 1579 1580 1582 1583 1584 1585 1586 1586 1587 1588 1589 1589 1588 1588 1588 1588 1587 1585 1584 1582 1579 1578 1578 1577 1576 1574 1573 1569 1567
1554 1557 1559 1562 1563 1564 1566 1568 1569 1569 1571 1572 1573 1573 1574 1575 1576 1578 1580 1580 1581 1581 1582 1583 1584 1585 1585 1584 1585 1584 1584 1584 1583 1581 1579 1576 1574 1573 1573 1572 1570 1568 1565
Wind_Speed
20 19 19 18 19 19 21 21 20 20 20 20 20 19 20 21 19 18 17 16 15 14 15 14 14 14 14 13 14 15 14 13 13 12 13 13 13 12 12 10 10 10 10
22 21 21 19 19 20 20 22 21 20 20 20 20 20 20 18 17 15 14 12 12 13 13 13 12 13 13 13 14 14 14 13 11 11 10 11 10 10 9 9 10 10 10
22 22 21 19 20 21 20 21 21 21 20 20 20 19 18 16 14 13 12 12 12 11 11 11 12 13 15 16 16 16 15 14 12 9 7 6 7 7 7 8 8 8 7
22 22 21 19 19 20 20 19 20 20 20 19 17 17 15 13 13 12 11 11 11 12 13 13 14 14 14 13 13 10 8 10 11 8 6 5 6 7 6 7 7 7 7
23 21 20 20 19 19 18 18 19 19 19 18 16 15 14 13 13 13 10 11 11 12 12 15 17 17 15 12 10 9 9 7 7 9 7 6 7 7 7 7 6 6 6
22 22 21 19 19 19 17 17 18 19 18 17 15 15 15 15 15 14 14 14 14 14 14 17 18 16 14 11 9 8 7 9 8 5 4 6 5 5 5 6 5 6 6
23 22 22 18 19 19 17 17 18 18 17 16 15 16 17 18 17 16 14 15 15 16 18 19 18 15 13 11 10 10 10 9 7 7 6 5 4 4 5 6 5 5 5
20 22 22 20 21 19 18 18 17 15 15 15 16 18 19 19 19 20 19 19 20 21 23 22 19 16 11 10 10 11 11 8 9 9 8 8 8 9 9 8 7 6 5
17 22 24 22 23 19 18 17 18 16 15 14 17 19 20 21 21 23 23 24 24 24 24 22 19 15 12 11 13 12 10 9 10 10 10 10 12 12 12 11 10 9 8
18 22 26 25 25 22 20 17 16 15 14 15 18 21 20 20 22 23 22 22 21 20 19 17 14 12 13 14 14 13 11 11 11 11 11 13 13 13 13 12 11 10 9
21 24 26 28 26 22 19 17 16 14 13 16 20 21 19 20 19 16 17 14 14 13 11 11 10 10 10 11 12 12 11 11 11 11 12 13 13 13 12 12 11 11 10
20 22 24 27 26 22 19 17 16 17 16 19 21 21 20 19 16 12 12 10 10 7 5 5 5 4 3 5 7 10 13 11 10 10 12 12 12 12 11 10 10 10 9
19 19 24 28 26 23 19 18 19 18 17 17 20 21 20 17 14 12 11 11 11 11 10 6 5 4 2 2 2 4 8 9 11 11 12 12 12 11 10 10 9 9 8
21 19 23 29 26 23 20 19 19 16 16 16 19 21 20 14 8 11 11 11 10 10 10 9 6 4 2 3 3 1 4 5 6 7 9 10 11 11 10 9 9 8 7
20 19 22 29 24 22 20 19 15 13 14 12 17 20 17 12 8 10 10 12 10 6 3 5 5 2 2 2 4 1 2 2 4 3 5 6 7 9 10 10 10 9 8
20 19 23 31 23 18 18 15 13 13 13 12 17 17 14 13 11 9 8 9 8 3 2 3 4 6 7 4 1 2 4 4 3 3 4 6 5 6 7 8 8 8 8
20 20 25 28 22 18 17 14 12 11 12 11 17 11 10 12 11 9 7 7 4 4 7 6 4 6 6 7 4 5 6 6 5 4 5 6 6 4 5 6 7 9 7
22 21 22 25 21 20 18 15 12 13 12 10 15 11 8 11 11 12 11 9 8 8 7 4 3 3 5 5 6 9 12 13 10 8 6 5 6 5 5 6 7 9 9
23 23 21 25 21 19 17 15 12 12 14 12 12 9 11 13 15 14 15 13 10 9 8 5 3 3 5 7 7 8 11 14 11 11 10 9 8 9 8 8 9 10 11
25 24 24 23 21 19 18 17 16 17 16 14 14 12 10 12 15 16 16 16 13 11 9 8 7 7 9 12 14 15 16 16 14 13 14 14 13 13 13 10 12 12 13
26 28 26 24 20 21 22 24 22 21 19 18 17 13 10 10 15 20 19 19 16 13 13 11 12 12 12 15 16 17 17 15 15 16 16 16 15 14 9 10 11 12 14
27 30 28 25 22 22 22 21 24 24 24 20 17 17 14 14 11 19 20 20 18 18 18 16 16 17 17 13 14 14 14 13 10 11 14 15 16 8 5 7 9 11 12
30 29 26 25 23 21 19 18 20 26 29 26 25 22 20 18 17 15 22 22 20 22 21 21 18 18 19 16 13 10 6 4 10 7 4 0 4 7 4 7 12 16 19
27 24 24 25 23 22 20 22 21 19 29 34 31 26 24 22 21 21 17 24 26 24 24 25 23 21 20 20 17 14 12 12 7 7 6 7 7 8 9 12 16 17 19
26 24 23 24 23 21 21 23 24 22 21 24 33 30 32 28 26 24 24 22 21 29 29 26 26 25 22 19 20 17 16 15 13 15 19 17 17 14 14 16 18 19 14
29 29 29 28 25 23 22 21 23 24 23 24 29 33 31 32 30 28 29 28 25 24 32 32 29 28 26 24 24 23 22 20 16 14 18 22 23 23 19 18 18 14 14
Wind_Direction
155 142 129 123 118 117 119 119 118 117 115 113 113 111 110 109 108 107 105 106 105 105 103 103 101 98 96 95 97 98 102 97 94 102 103 102 97 91 96 107 108 108 107
149 142 132 129 122 120 121 122 122 122 120 118 114 114 110 107 105 103 103 104 108 107 112 111 106 107 104 106 105 104 101 91 96 100 99 98 97 93 101 106 106 107 114
152 144 137 133 126 127 123 124 125 124 121 118 115 115 112 109 108 105 106 111 112 117 118 118 112 115 109 109 108 105 101 93 93 90 98 97 101 99 108 115 121 123 125
156 149 143 136 130 131 125 127 125 124 121 118 113 113 109 106 103 101 99 111 118 121 121 120 118 119 117 105 107 106 106 99 81 79 100 112 107 108 115 119 123 125 124
159 154 145 141 135 136 131 130 129 125 120 115 114 112 106 101 95 97 99 99 112 126 124 122 121 115 109 104 101 95 83 78 80 70 90 99 114 116 112 118 113 129 132
161 160 153 147 141 141 134 132 129 128 121 116 109 105 98 95 96 94 96 99 100 111 124 125 120 116 106 99 92 80 69 66 61 59 70 125 121 114 113 128 120 119 128
166 165 163 153 148 145 138 135 132 132 122 114 106 100 94 97 96 93 91 90 97 107 116 122 123 115 106 87 73 66 60 59 60 71 93 127 146 130 125 130 123 113 123
170 172 167 161 154 149 140 137 133 127 124 113 108 101 103 99 96 91 88 90 95 105 112 116 118 112 101 82 69 65 58 64 81 86 92 101 112 111 106 96 97 101 110
172 173 170 165 157 148 143 141 138 134 129 120 113 109 108 104 100 97 94 94 101 106 109 112 114 112 99 84 76 72 67 77 88 90 94 100 97 93 91 91 92 95 100
167 167 167 167 159 149 148 146 142 138 133 125 120 118 116 113 106 98 96 97 97 102 105 112 116 111 94 84 81 79 78 81 88 92 95 93 90 90 88 87 85 86 90
158 166 168 165 158 152 149 147 143 135 136 132 127 126 125 119 110 106 97 95 95 97 102 112 114 112 100 85 79 81 84 80 83 88 86 84 84 86 84 84 85 85 85
154 159 165 163 160 156 149 149 143 136 132 130 132 134 131 126 116 101 89 65 69 89 132 136 139 148 115 93 89 78 75 74 79 79 77 72 71 72 73 73 75 76 76
147 151 159 159 162 158 153 150 148 145 134 128 140 140 138 131 121 103 81 73 77 91 113 139 167 159 131 67 84 86 76 63 66 73 71 69 66 62 60 60 62 65 63
162 152 154 161 157 157 154 151 150 141 138 134 142 148 147 139 122 119 109 90 106 115 109 128 136 157 203 327 345 15 73 63 61 63 59 60 61 59 54 51 51 51 49
164 160 161 165 151 154 155 157 154 149 154 147 151 155 160 157 145 122 121 123 131 123 120 128 146 139 305 265 289 351 55 47 39 34 31 23 36 45 43 42 43 41 36
162 158 156 169 160 159 158 159 156 165 164 156 161 161 170 171 164 146 144 136 148 158 192 216 223 243 240 232 198 337 337 313 335 14 2 359 355 16 28 29 30 29 27
168 163 163 169 180 174 171 162 171 164 169 169 180 185 192 189 197 195 190 174 202 208 193 205 243 223 211 231 265 295 314 305 309 338 342 347 337 5 17 7 10 16 360
180 179 171 175 181 183 188 191 188 189 182 183 189 204 211 225 222 236 220 213 214 192 199 224 208 209 229 247 279 282 286 295 284 276 294 327 332 352 341 341 338 350 345
194 187 183 187 194 195 200 210 206 203 202 207 197 211 233 239 244 250 220 222 224 209 217 236 245 230 233 247 267 267 280 286 279 280 285 291 302 307 319 326 322 327 336
204 201 199 198 200 203 205 214 217 208 206 214 221 236 237 253 252 233 224 228 229 229 234 251 255 267 280 264 256 262 272 274 272 275 287 286 294 300 297 312 315 318 322
209 205 208 206 209 207 212 215 220 221 222 225 233 236 249 257 242 227 228 229 236 240 246 253 255 260 275 283 277 266 274 272 278 275 281 281 283 300 282 295 317 326 323
212 209 210 210 211 215 223 229 231 230 233 232 237 238 245 247 246 234 231 229 233 240 245 248 259 265 270 289 294 292 287 272 284 268 269 281 266 265 294 293 318 326 326
211 212 213 214 216 221 224 223 233 234 236 236 236 240 240 243 243 242 238 236 243 244 249 248 254 267 273 276 282 291 303 290 303 265 241 277 236 246 294 321 325 319 312
216 219 219 218 223 230 234 229 237 247 241 237 240 244 244 247 248 245 244 245 251 256 256 253 254 262 273 271 264 273 276 297 296 297 254 272 279 276 297 311 318 320 320
220 225 229 232 232 238 240 243 245 253 258 247 240 245 243 245 248 252 248 254 258 253 255 258 253 259 260 270 263 266 275 284 286 280 289 285 286 298 303 313 324 331 320
224 225 227 231 239 242 249 255 256 260 261 256 250 247 249 240 244 248 255 253 258 266 252 253 257 256 256 265 264 261 267 279 283 283 290 295 299 299 303 311 320 327 330